Torna al catalogo

STARLINK-32815

AttivoComunicazioniVLEO
NORAD 62956·PAYLOAD·🇺🇸 United States

Lanciato Feb 11, 2025 da Vandenberg Space Force Base

Loading…

Prossimi Passaggi (prossime 24 ore)

TLE

AggiornatoSource: CelesTrak SupGP

Epoca: Sep 14, 2026, 21:22 UTC

1 62956C 25029J   26257.89076389  .00034134  00000+0  10093-2 0  2574
2 62956  53.1590  67.9181 0001266  83.8799 352.9167 15.34347411    11

Traccia STARLINK-32815 in tempo reale con AllMySat

Download on the App Store